{"data":{"norad_id":63389,"intl_designator":"2025-063AC","name":"STARLINK-33656","alt_names":[],"object_type":"PAYLOAD","status":"ACTIVE","operator":null,"country":"US","launch_date":"2025-03-26","launch_site_code":"AFWTR","launch_vehicle":null,"mission":null,"orbit_class":"UNKNOWN","rcs_meters":null,"size_class":null,"mass_kg":null,"dimensions":null,"purposes":["comms"],"wikipedia_slug":null,"has_3d_model":false,"image_url":null,"decayed_at":null,"tle_current":{"epoch":"2026-05-25T04:12:50.501664Z","epoch_age_seconds":59607,"freshness":"FRESH","line1":"1 63389U 25063AC  26145.17558451  .00015171  00000+0  49935-3 0  9996","line2":"2 63389  53.1587  56.9165 0001040  85.7959 274.3161 15.31718807 66478","mean_motion":15.31718807,"eccentricity":0.000104,"inclination_deg":53.1587,"raan_deg":56.9165,"arg_perigee_deg":85.7959,"mean_anomaly_deg":274.3161,"bstar":0.00049935,"rev_number":6647,"period_min":94.012033633011,"perigee_km":469.97165573387,"apogee_km":471.39621048796,"semimajor_km":6848.8209331109,"source":"CELESTRAK","updated_at":"2026-05-25T13:38:19.967246Z"}}}